Regional Weather Roundup
Issued by NWS

Home | Current Version | Previous Version | Graphics & Text | Print | Product List | Glossary On
Versions: 1 2 3 4 5 6 7 8 9 10 11 12 13 14 15 16 17 18 19 20 21 22 23 24 25 26 27
000
ASUS45 KBOI 251410
RWRID

IDAHO REGIONAL WEATHER ROUNDUP
NATIONAL WEATHER SERVICE BOISE ID
800 AM MDT TUE JUL 25 2017

NOTE: "FAIR" INDICATES FEW OR NO CLOUDS BELOW 12000 FEET
WITH NO SIGNIFICANT WEATHER AND/OR OBSTRUCTIONS TO VISIBILITY

IDZ012-014-251500-
SOUTHWEST IDAHO


CITY           SKY/WX    TMP DP  RH WIND       PRES   REMARKS
BOISE          CLOUDY    73  48  41 E3        29.96R
CALDWELL       CLOUDY    72  48  42 W7        29.94R
MOUNTAIN HOME  CLOUDY    76  50  39 NW8       29.96R
$$

IDZ016-017-251500-
SOUTHCENTRAL IDAHO


CITY           SKY/WX    TMP DP  RH WIND       PRES   REMARKS
BURLEY         CLOUDY    68  56  65 S14       30.05R
JEROME         CLOUDY    74  51  44 SE8       30.06R
TWIN FALLS     CLOUDY    73  53  49 S8        30.05R
$$

IDZ019>023-251500-
SOUTHEAST IDAHO


CITY           SKY/WX    TMP DP  RH WIND       PRES   REMARKS
IDAHO FALLS    CLOUDY    61  56  83 CALM      30.10R
POCATELLO      CLOUDY    76  50  40 S10       30.08R
REXBURG        CLOUDY    60  51  72 NE6       30.10R
$$

IDZ006-010-011-018-031-032-251500-
CENTRAL IDAHO MOUNTAINS


CITY           SKY/WX    TMP DP  RH WIND       PRES   REMARKS
MCCALL         MOSUNNY   60  46  59 CALM      30.09S
HAILEY         LGT RAIN  64  54  68 NW5       30.16R
STANLEY          N/A     57  48  72 CALM      30.21S
SALMON         NOT AVBL
CHALLIS        CLOUDY    65  48  54 SW5       30.10R
$$

IDZ002-004-006-007-026-251500-
NORTHERN IDAHO


CITY           SKY/WX    TMP DP  RH WIND       PRES   REMARKS
LEWISTON       SUNNY     63  39  41 VRB3      29.98R
LOWELL           N/A     55  45  68 CALM      30.04R
COEUR D`ALENE  SUNNY     62  42  47 NE6       30.03R
MULLAN PASS    SUNNY     61  28  28 CALM      30.17R
$$




USA.gov is the U.S. government's official web portal to all federal, state and local government web resources and services.